Location: Newark
(43.0000°N, 1.6781°W)
Time: 12:17:38
(UTC+00:00)

Vanguard 1 Rocket - Pass Details

Date: 09 October 2022
Orbit: 650 x 4225 km, 34.3° (Epoch: 04 December)

Event Time Altitude Azimuth Distance (km) Brightness Sun altitude
Rises 21:07:16 0° 267° (W) 8,144 12.9 -38.3°
Reaches altitude 10° 21:13:32 10° 265° (W) 6,759 12.3 -39.3°
Enters shadow 21:31:54 57° 206° (SSW) 2,742 9.5 -42.0°
